星链-11268 (STARLINK-11268)

导读 | 星芒AI

STARLINK-11268 是 SpaceX Starlink 卫星互联网项目中的一颗低轨卫星,属于第5批部署的星链卫星之一。该卫星于2020年5月23日由猎鹰9号火箭从肯尼迪航天中心发射升空,运行在约550公里高的近地轨道,旨在为全球提供高速互联网服务。STARLINK-11268 采用先进设计,具备相控阵天线和激光通信能力,支持高效数据传输。作为星链系统的一部分,它有助于扩大网络覆盖范围,提升连接速度与稳定性,尤其在偏远地区具有重要意义。

基本信息
目录编号:
61055
目录名称:
STARLINK-11268
国际标识:
2024-164F
轨道中心:
EARTH
卫星名称:
星链-11268
卫星全名:
星链-11268 (STARLINK-11268)
卫星状态:
在轨 (已飞行458 天)
发射日期:
2024-09-13 UTC
国别 :
美国 (US)
星等 :
--
轨道信息
数据来源 国际轨道数据
星历时间: 2025-12-14T18:38:57+0800
1天前
查看轨道信息
半长轴: 6737.909km
偏心率: 0.0001629
轨道倾角: 53.160°
近地点辐角 108.315°
升交点赤经 11.235°
平近点角 251.805°
近地点: 358.676km
远地点: 360.872km
周期: 91.738分钟
每日圈数: 15.696943
详细信息
固有亮度:
5
最大亮度:
2.5
卫星平台:
Starlink V1.0
覆盖范围:
全球
运营商:
太空探索技术公司
运营商所在国:
美国
制造商(研发单位):
太空探索技术公司
制造商所在国:
美国
使用方式:
暂无
卫星简介
Starlink 计划是 SpaceX 推出的全球卫星互联网项目,通过发射低轨道卫星,为全球尤其是偏远地区提供高速、低延迟的互联网服务。自 2019 年起,Starlink 已部署数千颗卫星,旨在缩小全球数字鸿沟,推动互联网普及。该项目还为军事、航空等行业提供通信支持,带来广泛经济效益。
2D轨道图
3D轨道图
轨道高度分析图
轨道倾角分析图
轨道综合分析图
查看轨道综合分析图